| time (UTC) | temp C | wind direction | speed KPH | gust KPH | rain 1hr cm | rain 24hr cm | rain mn cm | humidity % | barometer mb |
| 20260509082315 | 7 | 319 | 0.0 | 0.0 | 0.03 | 0.05 | 0.03 | 91 | 1013.5 |
| 20260509081325 | 7 | 319 | 0.0 | 0.0 | 0.03 | 0.05 | 0.03 | 90 | 1013.5 |
| 20260509080315 | 7 | 319 | 0.0 | 0.0 | 0.00 | 0.03 | 0.00 | 90 | 1013.5 |
| 20260509075331 | 7 | 319 | 0.0 | 0.0 | 0.00 | 0.03 | 0.00 | 90 | 1013.4 |
| 20260509073328 | 7 | 319 | 0.0 | 0.0 | 0.00 | 0.03 | 0.00 | 89 | 1013.2 |
| 20260509072330 | 7 | 319 | 0.0 | 0.0 | 0.00 | 0.03 | 0.00 | 89 | 1013.1 |
| 20260509071318 | 7 | 319 | 0.0 | 0.0 | 0.00 | 0.03 | 0.00 | 89 | 1013.2 |
| 20260509070351 | 7 | 319 | 0.0 | 0.0 | 0.00 | 0.03 | 0.00 | 88 | 1013.0 |
| 20260509065320 | 7 | 319 | 0.0 | 0.0 | 0.00 | 0.03 | 0.00 | 89 | 1013.0 |
| 20260509064337 | 7 | 319 | 0.0 | 0.0 | 0.00 | 0.03 | 0.00 | 88 | 1013.3 |
| 20260509063327 | 7 | 319 | 0.0 | 0.0 | 0.00 | 0.03 | 0.00 | 88 | 1013.4 |
| 20260509062336 | 7 | 319 | 0.0 | 0.0 | 0.00 | 0.03 | 0.00 | 88 | 1013.5 |
| 20260509061326 | 7 | 319 | 0.0 | 0.0 | 0.00 | 0.03 | 0.00 | 88 | 1013.6 |
| 20260509060315 | 7 | 319 | 0.0 | 0.0 | 0.00 | 0.03 | 0.00 | 88 | 1013.9 |
| 20260509055323 | 7 | 319 | 0.0 | 0.0 | 0.00 | 0.03 | 0.00 | 87 | 1013.8 |
| 20260509054313 | 7 | 319 | 0.0 | 0.0 | 0.00 | 0.03 | 0.00 | 87 | 1013.8 |
| 20260509053328 | 7 | 319 | 0.0 | 0.0 | 0.00 | 0.03 | 0.00 | 86 | 1013.7 |
| 20260509052315 | 7 | 319 | 0.0 | 0.0 | 0.00 | 0.03 | 0.00 | 86 | 1013.7 |
| 20260509051322 | 7 | 319 | 0.0 | 0.0 | 0.00 | 0.03 | 0.00 | 86 | 1013.8 |
| 20260509050316 | 7 | 319 | 0.0 | 0.0 | 0.00 | 0.03 | 0.00 | 86 | 1013.8 |
| 20260509045347 | 7 | 319 | 0.0 | 0.0 | 0.00 | 0.03 | 0.00 | 86 | 1013.8 |
| 20260509044320 | 7 | 319 | 0.0 | 0.0 | 0.00 | 0.03 | 0.00 | 85 | 1013.9 |
| 20260509043337 | 7 | 319 | 0.0 | 0.0 | 0.00 | 0.03 | 0.00 | 85 | 1014.0 |
| 20260509042344 | 7 | 319 | 0.0 | 0.0 | 0.00 | 0.03 | 0.00 | 85 | 1014.0 |
| 20260509041331 | 7 | 319 | 0.0 | 0.0 | 0.00 | 0.03 | 0.00 | 85 | 1014.0 |
| 20260509040319 | 7 | 319 | 0.0 | 0.0 | 0.00 | 0.03 | 0.00 | 85 | 1014.1 |
| 20260509035327 | 7 | 319 | 0.0 | 0.0 | 0.00 | 0.03 | 0.03 | 83 | 1014.0 |
| 20260509034336 | 7 | 319 | 0.0 | 0.0 | 0.00 | 0.03 | 0.03 | 84 | 1013.9 |
| 20260509033327 | 7 | 319 | 0.0 | 0.0 | 0.00 | 0.03 | 0.03 | 83 | 1013.9 |
| 20260509032317 | 7 | 319 | 0.0 | 0.0 | 0.00 | 0.03 | 0.03 | 82 | 1013.7 |
| 20260509031326 | 7 | 319 | 0.0 | 0.0 | 0.00 | 0.03 | 0.03 | 82 | 1013.8 |
| 20260509030335 | 6 | 319 | 0.0 | 0.0 | 0.00 | 0.03 | 0.03 | 83 | 1013.5 |
| 20260509025324 | 6 | 319 | 0.0 | 0.0 | 0.00 | 0.03 | 0.03 | 82 | 1013.7 |
| 20260509024312 | 6 | 319 | 0.0 | 0.0 | 0.00 | 0.03 | 0.03 | 81 | 1013.4 |
| 20260509023319 | 6 | 319 | 0.0 | 0.0 | 0.00 | 0.03 | 0.03 | 82 | 1013.3 |
| 20260509022328 | 6 | 319 | 0.0 | 0.0 | 0.00 | 0.03 | 0.03 | 81 | 1013.5 |
| 20260509021343 | 6 | 319 | 0.0 | 0.0 | 0.00 | 0.03 | 0.03 | 81 | 1013.5 |
| 20260509020330 | 6 | 320 | 0.0 | 0.0 | 0.00 | 0.03 | 0.03 | 79 | 1013.5 |
| 20260509015319 | 6 | 319 | 0.0 | 0.0 | 0.00 | 0.03 | 0.03 | 79 | 1013.4 |
| 20260509014328 | 6 | 319 | 0.0 | 0.0 | 0.00 | 0.03 | 0.03 | 77 | 1013.5 |
| 20260509013334 | 7 | 319 | 0.0 | 0.0 | 0.00 | 0.03 | 0.03 | 76 | 1013.3 |
| 20260509012323 | 7 | 319 | 0.0 | 0.0 | 0.00 | 0.03 | 0.03 | 76 | 1013.2 |
| 20260509011312 | 7 | 319 | 0.0 | 0.0 | 0.00 | 0.03 | 0.03 | 73 | 1013.2 |
| 20260509010345 | 7 | 319 | 0.0 | 0.0 | 0.00 | 0.03 | 0.03 | 74 | 1012.9 |
| 20260509005331 | 8 | 319 | 0.0 | 0.0 | 0.00 | 0.03 | 0.03 | 73 | 1012.7 |
| 20260509004337 | 8 | 319 | 0.0 | 0.0 | 0.00 | 0.03 | 0.03 | 74 | 1012.6 |
| 20260509003327 | 8 | 319 | 0.0 | 0.0 | 0.00 | 0.03 | 0.03 | 72 | 1012.4 |
| 20260509002316 | 9 | 319 | 0.0 | 0.0 | 0.00 | 0.03 | 0.03 | 72 | 1012.2 |
| 20260509001350 | 10 | 319 | 0.0 | 0.0 | 0.00 | 0.03 | 0.03 | 70 | 1012.1 |
| 20260509000318 | 10 | 319 | 0.0 | 0.0 | 0.00 | 0.03 | 0.03 | 69 | 1012.3 |
| 20260508235316 | 11 | 319 | 0.0 | 0.0 | 0.00 | 0.03 | 0.03 | 67 | 1012.1 |
| 20260508234326 | 11 | 319 | 0.0 | 0.0 | 0.00 | 0.03 | 0.03 | 64 | 1012.0 |
| 20260508233316 | 12 | 319 | 0.0 | 0.0 | 0.00 | 0.03 | 0.03 | 62 | 1011.8 |
| 20260508232332 | 13 | 319 | 0.0 | 0.0 | 0.00 | 0.03 | 0.03 | 56 | 1011.6 |
| 20260508231320 | 13 | 319 | 0.0 | 0.0 | 0.00 | 0.03 | 0.03 | 54 | 1011.5 |
| 20260508230357 | 13 | 319 | 0.0 | 0.0 | 0.00 | 0.03 | 0.03 | 52 | 1011.5 |
| 20260508225323 | 14 | 318 | 0.0 | 3.2 | 0.00 | 0.03 | 0.03 | 50 | 1011.4 |
| 20260508224313 | 15 | 342 | 0.0 | 3.2 | 0.00 | 0.03 | 0.03 | 49 | 1011.1 |
| 20260508223323 | 15 | 120 | 0.0 | 4.8 | 0.00 | 0.03 | 0.03 | 49 | 1011.1 |
| 20260508222314 | 16 | 290 | 0.0 | 3.2 | 0.00 | 0.03 | 0.03 | 49 | 1011.0 |
| 20260508221322 | 15 | 324 | 0.0 | 6.4 | 0.00 | 0.03 | 0.03 | 48 | 1011.2 |
| 20260508220337 | 15 | 278 | 0.0 | 4.8 | 0.00 | 0.03 | 0.03 | 53 | 1011.2 |
| 20260508215326 | 15 | 289 | 0.0 | 4.8 | 0.00 | 0.03 | 0.03 | 53 | 1011.2 |
| 20260508214321 | 13 | 77 | 1.6 | 6.4 | 0.00 | 0.03 | 0.03 | 56 | 1011.1 |
| 20260508213330 | 14 | 30 | 1.6 | 8.0 | 0.00 | 0.03 | 0.03 | 54 | 1011.4 |
| 20260508212338 | 14 | 206 | 0.0 | 4.8 | 0.00 | 0.03 | 0.03 | 55 | 1011.3 |
| 20260508211328 | 14 | 288 | 0.0 | 4.8 | 0.00 | 0.03 | 0.03 | 54 | 1011.4 |
| 20260508210337 | 15 | 1 | 3.2 | 6.4 | 0.00 | 0.03 | 0.03 | 55 | 1011.2 |
| 20260508205325 | 15 | 281 | 0.0 | 4.8 | 0.00 | 0.03 | 0.03 | 57 | 1011.0 |
| 20260508204314 | 14 | 180 | 0.0 | 8.0 | 0.00 | 0.03 | 0.03 | 57 | 1011.2 |
| 20260508203350 | 13 | 49 | 1.6 | 8.0 | 0.00 | 0.03 | 0.03 | 57 | 1011.0 |
| 20260508202317 | 13 | 60 | 1.6 | 4.8 | 0.00 | 0.03 | 0.03 | 62 | 1011.2 |
| 20260508201327 | 12 | 146 | 1.6 | 4.8 | 0.03 | 0.03 | 0.03 | 62 | 1011.2 |
| 20260508200316 | 12 | 291 | 3.2 | 9.7 | 0.03 | 0.03 | 0.03 | 64 | 1011.4 |
| 20260508195333 | 11 | 288 | 1.6 | 6.4 | 0.03 | 0.03 | 0.03 | 67 | 1011.4 |
| 20260508194327 | 11 | 320 | 0.0 | 3.2 | 0.03 | 0.03 | 0.03 | 74 | 1011.4 |
| 20260508193315 | 10 | 261 | 0.0 | 3.2 | 0.03 | 0.03 | 0.03 | 75 | 1011.6 |
| 20260508192328 | 10 | 352 | 1.6 | 11.3 | 0.03 | 0.03 | 0.03 | 72 | 1011.6 |
| 20260508191317 | 11 | 306 | 3.2 | 12.9 | 0.00 | 0.00 | 0.00 | 69 | 1012.3 |
| 20260508190326 | 12 | 70 | 3.2 | 9.7 | 0.00 | 0.00 | 0.00 | 58 | 1011.8 |
| 20260508185315 | 13 | 293 | 1.6 | 14.5 | 0.00 | 0.00 | 0.00 | 49 | 1010.9 |
| 20260508184330 | 14 | 22 | 1.6 | 6.4 | 0.00 | 0.00 | 0.00 | 47 | 1010.6 |
| 20260508183316 | 15 | 39 | 3.2 | 4.8 | 0.00 | 0.00 | 0.00 | 46 | 1010.4 |
| 20260508182325 | 15 | 286 | 1.6 | 6.4 | 0.00 | 0.00 | 0.00 | 45 | 1010.7 |
| 20260508181313 | 15 | 288 | 1.6 | 8.0 | 0.00 | 0.00 | 0.00 | 47 | 1010.7 |
| 20260508180350 | 14 | 311 | 1.6 | 8.0 | 0.00 | 0.00 | 0.00 | 50 | 1011.0 |
| 20260508175316 | 13 | 23 | 1.6 | 11.3 | 0.00 | 0.00 | 0.00 | 49 | 1011.2 |
| 20260508174326 | 13 | 160 | 1.6 | 8.0 | 0.00 | 0.00 | 0.00 | 47 | 1011.4 |
| 20260508173315 | 13 | 155 | 4.8 | 20.9 | 0.00 | 0.00 | 0.00 | 45 | 1011.5 |
| 20260508172322 | 14 | 23 | 3.2 | 11.3 | 0.00 | 0.00 | 0.00 | 46 | 1011.3 |
| 20260508171357 | 14 | 284 | 1.6 | 4.8 | 0.00 | 0.00 | 0.00 | 45 | 1011.1 |
| 20260508170326 | 13 | 189 | 3.2 | 11.3 | 0.00 | 0.00 | 0.00 | 46 | 1011.3 |
| 20260508165314 | 13 | 293 | 1.6 | 6.4 | 0.00 | 0.00 | 0.00 | 47 | 1011.3 |
| 20260508164333 | 13 | 212 | 0.0 | 4.8 | 0.00 | 0.00 | 0.00 | 45 | 1011.3 |
| 20260508163328 | 13 | 97 | 3.2 | 6.4 | 0.00 | 0.00 | 0.00 | 43 | 1011.3 |
| 20260508162324 | 14 | 9 | 1.6 | 9.7 | 0.00 | 0.00 | 0.00 | 45 | 1011.2 |
| 20260508161315 | 15 | 36 | 3.2 | 9.7 | 0.00 | 0.00 | 0.00 | 43 | 1011.4 |
| 20260508160331 | 14 | 308 | 3.2 | 9.7 | 0.00 | 0.00 | 0.00 | 45 | 1011.3 |
| 20260508155322 | 15 | 306 | 1.6 | 4.8 | 0.00 | 0.00 | 0.00 | 41 | 1011.4 |
| 20260508154331 | 15 | 299 | 1.6 | 9.7 | 0.00 | 0.00 | 0.00 | 44 | 1011.6 |
| 20260508153321 | 15 | 18 | 3.2 | 8.0 | 0.00 | 0.00 | 0.00 | 44 | 1011.7 |
| 20260508152337 | 15 | 321 | 1.6 | 6.4 | 0.00 | 0.00 | 0.00 | 47 | 1011.7 |
| 20260508151352 | 15 | 323 | 1.6 | 6.4 | 0.00 | 0.00 | 0.00 | 48 | 1011.4 |
| 20260508150318 | 14 | 295 | 1.6 | 4.8 | 0.00 | 0.00 | 0.00 | 48 | 1011.3 |
| 20260508144315 | 13 | 20 | 0.0 | 4.8 | 0.00 | 0.00 | 0.00 | 50 | 1011.3 |
| 20260508143325 | 12 | 97 | 1.6 | 6.4 | 0.00 | 0.00 | 0.00 | 54 | 1011.4 |
| 20260508142315 | 12 | 4 | 3.2 | 9.7 | 0.00 | 0.00 | 0.00 | 53 | 1011.6 |
| 20260508141329 | 11 | 304 | 0.0 | 4.8 | 0.00 | 0.00 | 0.00 | 55 | 1011.7 |
| 20260508140316 | 11 | 321 | 0.0 | 4.8 | 0.00 | 0.00 | 0.00 | 57 | 1012.0 |
| 20260508135330 | 11 | 23 | 0.0 | 3.2 | 0.00 | 0.00 | 0.00 | 60 | 1011.9 |
| 20260508134338 | 11 | 309 | 0.0 | 3.2 | 0.00 | 0.00 | 0.00 | 57 | 1011.8 |
| 20260508133325 | 10 | 353 | 0.0 | 3.2 | 0.00 | 0.00 | 0.00 | 59 | 1011.8 |
| 20260508132315 | 10 | 288 | 0.0 | 4.8 | 0.00 | 0.00 | 0.00 | 62 | 1012.0 |
| 20260508131349 | 10 | 1 | 0.0 | 6.4 | 0.00 | 0.00 | 0.00 | 64 | 1012.4 |
| 20260508130316 | 10 | 343 | 1.6 | 6.4 | 0.00 | 0.00 | 0.00 | 62 | 1012.4 |
| 20260508125324 | 9 | 6 | 1.6 | 3.2 | 0.00 | 0.00 | 0.00 | 68 | 1012.3 |
| 20260508124314 | 8 | 343 | 0.0 | 4.8 | 0.00 | 0.00 | 0.00 | 67 | 1012.3 |
| 20260508123328 | 8 | 266 | 1.6 | 3.2 | 0.00 | 0.00 | 0.00 | 71 | 1012.3 |
| 20260508122318 | 8 | 285 | 0.0 | 3.2 | 0.00 | 0.00 | 0.00 | 75 | 1012.2 |
| 20260508121326 | 7 | 342 | 0.0 | 1.6 | 0.00 | 0.00 | 0.00 | 76 | 1012.2 |
| 20260508120315 | 7 | 341 | 0.0 | 3.2 | 0.00 | 0.00 | 0.00 | 76 | 1012.3 |
| 20260508115332 | 7 | 34 | 0.0 | 3.2 | 0.00 | 0.00 | 0.00 | 78 | 1012.2 |
| 20260508114322 | 7 | 322 | 0.0 | 3.2 | 0.00 | 0.00 | 0.00 | 79 | 1012.3 |
| 20260508113314 | 6 | 303 | 0.0 | 1.6 | 0.00 | 0.00 | 0.00 | 81 | 1012.2 |
| 20260508112345 | 6 | 41 | 0.0 | 0.0 | 0.00 | 0.00 | 0.00 | 83 | 1012.2 |
| 20260508111319 | 5 | 45 | 0.0 | 0.0 | 0.00 | 0.00 | 0.00 | 84 | 1012.1 |
| 20260508110326 | 6 | 45 | 0.0 | 0.0 | 0.00 | 0.00 | 0.00 | 84 | 1012.0 |
| 20260508105314 | 6 | 45 | 0.0 | 0.0 | 0.00 | 0.00 | 0.00 | 83 | 1012.0 |
| 20260508104352 | 6 | 45 | 0.0 | 0.0 | 0.00 | 0.00 | 0.00 | 82 | 1012.0 |
| 20260508103318 | 6 | 45 | 0.0 | 0.0 | 0.00 | 0.00 | 0.00 | 81 | 1012.0 |
| 20260508102327 | 6 | 45 | 0.0 | 0.0 | 0.00 | 0.00 | 0.00 | 80 | 1011.7 |
| 20260508101317 | 6 | 45 | 0.0 | 0.0 | 0.00 | 0.00 | 0.00 | 80 | 1011.6 |
| 20260508100325 | 6 | 45 | 0.0 | 0.0 | 0.00 | 0.00 | 0.00 | 80 | 1011.5 |
| 20260508095331 | 6 | 45 | 0.0 | 0.0 | 0.00 | 0.03 | 0.00 | 81 | 1011.5 |
| 20260508094340 | 6 | 45 | 0.0 | 0.0 | 0.00 | 0.03 | 0.00 | 81 | 1011.2 |
| 20260508093355 | 6 | 45 | 0.0 | 0.0 | 0.00 | 0.03 | 0.00 | 80 | 1011.1 |
| 20260508092323 | 6 | 45 | 0.0 | 0.0 | 0.00 | 0.03 | 0.00 | 78 | 1011.2 |
| 20260508091333 | 6 | 45 | 0.0 | 0.0 | 0.00 | 0.03 | 0.00 | 78 | 1011.1 |
| 20260508090322 | 6 | 45 | 0.0 | 0.0 | 0.00 | 0.03 | 0.00 | 77 | 1011.3 |
| 20260508085312 | 6 | 45 | 0.0 | 0.0 | 0.00 | 0.10 | 0.00 | 76 | 1011.2 |
| 20260508084349 | 6 | 45 | 0.0 | 0.0 | 0.00 | 0.10 | 0.00 | 76 | 1011.3 |
| 20260508083335 | 6 | 45 | 0.0 | 0.0 | 0.00 | 0.10 | 0.00 | 77 | 1011.4 |